W2CS Weather Reports


Display with metric or nautical units.
time (UTC)temp
F
wind
direction
speed
MPH
gust
MPH
rain 1hr
in
rain 24hr
in
rain mn
in
humidity
%
barometer
mb
20210615074729 62 97 0.0 0.0 0.00 0.35 0.00 95 1009.3
20210615073754 63 97 0.0 1.0 0.00 0.35 0.00 95 1009.7
20210615072724 63 97 0.0 0.0 0.00 0.35 0.00 95 1009.8
20210615071733 63 97 0.0 1.0 0.00 0.35 0.00 95 1009.8
20210615070756 63 97 0.0 0.0 0.00 0.35 0.00 96 1010.0
20210615065737 63 97 0.0 1.0 0.00 0.35 0.00 96 1010.4
20210615064714 63 94 0.0 1.0 0.00 0.35 0.00 96 1010.4
20210615063708 63 93 0.0 0.0 0.00 0.35 0.00 96 1010.9
20210615062656 63 93 0.0 0.0 0.00 0.35 0.00 96 1011.0
20210615061631 63 93 0.0 0.0 0.00 0.35 0.00 96 1011.0
20210615060633 63 93 0.0 0.0 0.00 0.35 0.00 96 1011.3
20210615055625 63 93 0.0 0.0 0.00 0.35 0.00 96 1011.3
20210615054603 63 93 0.0 0.0 0.00 0.35 0.00 96 1011.3
20210615053624 63 93 0.0 0.0 0.00 0.35 0.00 95 1011.4
20210615052551 63 93 0.0 0.0 0.00 0.35 0.00 95 1010.9
20210615051545 63 93 0.0 0.0 0.00 0.35 0.00 95 1010.9
20210615050542 64 93 0.0 0.0 0.00 0.35 0.00 95 1010.9
20210615045531 64 93 0.0 0.0 0.00 0.35 0.00 95 1010.9
20210615044500 64 93 0.0 0.0 0.00 0.35 0.00 95 1010.9
20210615043443 64 93 0.0 0.0 0.00 0.35 0.00 95 1011.0
20210615042427 64 93 0.0 0.0 0.00 0.35 0.00 95 1011.1
20210615041437 64 93 0.0 0.0 0.00 0.35 0.00 95 1011.1
20210615040408 64 93 0.0 0.0 0.00 0.35 0.00 95 1011.3
20210615035340 64 93 0.0 0.0 0.00 0.35 0.35 95 1011.4
20210615034333 64 93 0.0 0.0 0.00 0.35 0.35 95 1011.5
20210615033319 64 93 0.0 0.0 0.00 0.35 0.35 95 1011.5
20210615032342 64 93 0.0 0.0 0.00 0.35 0.35 95 1011.6
20210615031341 64 93 0.0 0.0 0.00 0.35 0.35 95 1011.4
20210615030320 64 93 0.0 0.0 0.00 0.35 0.35 95 1011.4
20210615025254 65 93 0.0 2.0 0.00 0.35 0.35 95 1011.3
20210615024304 65 93 0.0 2.0 0.00 0.35 0.35 95 1011.5
20210615023255 64 74 0.0 1.0 0.00 0.35 0.35 95 1011.5
20210615022251 65 74 0.0 1.0 0.00 0.35 0.35 95 1011.8
20210615021255 65 74 0.0 1.0 0.00 0.35 0.35 95 1011.8
20210615020229 65 74 0.0 0.0 0.00 0.35 0.35 95 1011.8
20210615015154 65 74 0.0 0.0 0.00 0.35 0.35 95 1011.9
20210615014200 65 74 0.0 0.0 0.00 0.35 0.35 95 1011.6
20210615013150 65 74 0.0 0.0 0.00 0.35 0.35 95 1011.6
20210615012125 65 74 0.0 0.0 0.00 0.35 0.35 95 1011.9
20210615011144 65 74 0.0 0.0 0.00 0.35 0.35 95 1011.9
20210615010157 65 74 0.0 0.0 0.00 0.35 0.35 94 1011.9
20210615005219 65 74 0.0 0.0 0.00 0.35 0.35 95 1011.8
20210615004215 65 74 0.0 0.0 0.00 0.35 0.35 95 1011.7
20210615003142 65 71 0.0 1.0 0.00 0.35 0.35 95 1011.7
20210615002118 65 113 0.0 1.0 0.00 0.35 0.35 94 1011.8
20210615001129 65 107 0.0 2.0 0.00 0.35 0.35 94 1011.9
20210615000118 65 207 0.0 3.0 0.00 0.35 0.35 94 1011.9
20210614235101 65 44 0.0 0.0 0.04 0.35 0.35 94 1011.9
20210614234049 65 68 0.0 3.0 0.12 0.35 0.35 94 1011.9
20210614233036 65 141 0.0 1.0 0.10 0.32 0.33 94 1011.9
20210614232039 65 133 0.0 2.0 0.00 0.31 0.31 94 1012.0
20210614231031 66 37 0.0 1.0 0.00 0.31 0.31 94 1011.9
20210614230045 66 338 0.0 0.0 0.05 0.31 0.31 94 1011.9
20210614225045 65 338 0.0 0.0 0.08 0.31 0.31 93 1011.9
20210614224018 65 323 0.0 1.0 0.10 0.29 0.28 93 1012.1
20210614222952 66 83 0.0 1.0 0.70 0.21 0.21 92 1012.1
20210614221922 66 290 0.0 3.0 0.00 0.18 0.18 92 1012.0
20210614220914 66 302 0.0 0.0 0.00 0.18 0.18 92 1012.0
20210614215917 66 59 0.0 1.0 0.00 0.18 0.18 92 1012.0
20210614214942 67 330 0.0 1.0 0.00 0.18 0.18 92 1012.1
20210614213922 67 330 0.0 2.0 0.00 0.18 0.18 91 1012.0
20210614212853 67 5 0.0 5.0 0.00 0.18 0.18 91 1012.2
20210614211905 67 257 0.0 5.0 0.00 0.18 0.18 92 1012.2
20210614210836 67 173 0.0 0.0 0.00 0.18 0.18 92 1012.6
20210614205814 67 172 0.0 0.0 0.00 0.18 0.18 92 1012.6
20210614204839 67 5 0.0 2.0 0.00 0.18 0.18 92 1012.6
20210614203845 67 332 0.0 2.0 0.00 0.18 0.18 92 1012.8
20210614202818 67 313 0.0 2.0 0.00 0.18 0.18 93 1013.0
20210614201754 67 23 0.0 3.0 0.00 0.18 0.18 93 1013.0
20210614200758 66 10 0.0 3.0 0.00 0.18 0.18 92 1013.2
20210614195745 66 196 0.0 2.0 0.00 0.18 0.18 91 1013.5
20210614194807 66 137 0.0 5.0 0.00 0.18 0.18 91 1013.5
20210614193802 66 338 0.0 5.0 0.00 0.18 0.18 92 1013.5
20210614192744 66 134 0.0 2.0 0.04 0.18 0.18 93 1013.8
20210614191807 65 339 0.0 2.0 0.06 0.18 0.18 91 1013.8
20210614190808 65 125 0.0 2.0 0.06 0.16 0.17 92 1014.0
20210614185741 65 317 0.0 3.0 0.00 0.16 0.16 92 1014.0
20210614184804 65 106 0.0 3.0 0.00 0.14 0.15 93 1014.0
20210614183826 65 72 0.0 1.0 0.04 0.14 0.15 93 1014.6
20210614182811 64 24 0.0 0.0 0.04 0.13 0.13 92 1014.6
20210614181814 64 24 0.0 2.0 0.05 0.13 0.13 91 1014.6
20210614180811 65 249 0.0 1.0 0.08 0.13 0.13 91 1014.7
20210614175738 65 247 0.0 0.0 0.04 0.12 0.12 92 1014.8
20210614174756 65 247 0.0 0.0 0.05 0.10 0.10 91 1014.8
20210614173738 64 232 0.0 1.0 0.05 0.09 0.10 92 1015.1
20210614172748 64 232 0.0 0.0 0.09 0.09 0.10 92 1015.6
20210614171716 64 229 0.0 1.0 0.09 0.08 0.08 90 1015.6
20210614170741 64 229 0.0 0.0 0.05 0.06 0.06 90 1015.6
20210614165741 64 229 0.0 0.0 0.06 0.06 0.06 89 1015.4
20210614164741 65 229 0.0 0.0 0.06 0.04 0.05 87 1015.4
20210614163742 65 131 0.0 0.0 0.13 0.04 0.04 86 1015.7
20210614162753 66 46 0.0 0.0 0.00 0.02 0.02 85 1015.4
20210614161749 66 46 0.0 1.0 0.00 0.02 0.02 84 1015.4
20210614160743 67 30 0.0 0.0 0.00 0.02 0.02 83 1015.6
20210614155719 67 57 0.0 2.0 0.00 0.02 0.02 84 1015.9
20210614154738 66 63 0.0 4.0 0.00 0.02 0.02 84 1015.9
20210614153735 66 67 0.0 4.0 0.00 0.02 0.02 85 1015.4
20210614152743 66 105 0.0 2.0 0.00 0.02 0.02 89 1015.6
20210614151729 65 110 0.0 1.0 0.00 0.02 0.02 89 1015.6
20210614150734 65 164 0.0 1.0 0.00 0.01 0.01 88 1015.7
20210614145721 65 244 0.0 1.0 0.00 0.01 0.01 86 1015.8
20210614144719 66 198 0.0 1.0 0.00 0.00 0.00 83 1015.8
20210614143727 67 261 0.0 1.0 0.00 0.00 0.00 81 1017.1
20210614142711 68 207 0.0 0.0 0.00 0.00 0.00 79 1017.2
20210614141701 69 209 0.0 0.0 0.00 0.00 0.00 79 1017.2
20210614140636 69 209 0.0 0.0 0.00 0.00 0.00 77 1016.7
20210614135613 70 209 0.0 0.0 0.00 0.00 0.00 75 1016.1
20210614134605 71 209 0.0 2.0 0.00 0.00 0.00 74 1016.1
20210614133603 71 134 0.0 2.0 0.00 0.00 0.00 73 1016.0
20210614132541 71 184 0.0 2.0 0.00 0.00 0.00 75 1016.1
20210614131605 71 255 0.0 2.0 0.00 0.00 0.00 74 1016.1
20210614130612 71 134 0.0 2.0 0.00 0.00 0.00 75 1015.4
20210614125620 70 68 0.0 2.0 0.00 0.00 0.00 75 1015.5
20210614124620 69 200 0.0 3.0 0.00 0.00 0.00 81 1015.5
20210614123550 68 199 0.0 3.0 0.00 0.00 0.00 78 1015.3
20210614122531 67 292 0.0 4.0 0.00 0.00 0.00 83 1015.6
20210614121511 67 131 0.0 4.0 0.00 0.00 0.00 84 1015.6
20210614120501 66 244 0.0 2.0 0.00 0.00 0.00 89 1015.1
20210614115434 64 83 0.0 2.0 0.00 0.00 0.00 93 1014.9
20210614114403 62 88 0.0 1.0 0.00 0.00 0.00 96 1015.1
20210614113339 62 88 0.0 2.0 0.00 0.00 0.00 97 1015.1
20210614112337 61 189 0.0 1.0 0.00 0.00 0.00 97 1015.0
20210614111345 60 167 0.0 1.0 0.00 0.00 0.00 97 1015.1
20210614110313 59 202 0.0 0.0 0.00 0.00 0.00 97 1015.1
20210614105308 59 202 0.0 0.0 0.00 0.00 0.00 97 1015.5
20210614104328 58 202 0.0 0.0 0.00 0.00 0.00 96 1015.5
20210614103307 58 202 0.0 0.0 0.00 0.00 0.00 96 1015.5
20210614102327 57 202 0.0 0.0 0.00 0.00 0.00 96 1015.5
20210614101344 56 202 0.0 0.0 0.00 0.00 0.00 96 1015.3
20210614100316 56 202 0.0 0.0 0.00 0.00 0.00 96 1015.3
20210614095332 56 123 0.0 0.0 0.00 0.00 0.00 96 1015.1
20210614094311 55 123 0.0 0.0 0.00 0.00 0.00 95 1015.1
20210614093249 55 123 0.0 0.0 0.00 0.00 0.00 96 1015.1
20210614092238 55 123 0.0 0.0 0.00 0.00 0.00 96 1015.1
20210614091236 55 123 0.0 0.0 0.00 0.00 0.00 95 1015.2
20210614090212 54 217 0.0 0.0 0.00 0.00 0.00 95 1015.2
20210614085229 54 217 0.0 0.0 0.00 0.00 0.00 95 1015.4
20210614084228 54 217 0.0 0.0 0.00 0.00 0.00 95 1015.4
20210614083216 54 217 0.0 0.0 0.00 0.00 0.00 95 1015.4
20210614082204 54 217 0.0 0.0 0.00 0.00 0.00 95 1015.4
20210614081143 54 217 0.0 0.0 0.00 0.00 0.00 94 1015.3
20210614080203 54 217 0.0 0.0 0.00 0.00 0.00 94 1015.3
20210614075158 54 217 0.0 0.0 0.00 0.00 0.00 94 1015.5